Waukegan, IL

11:43 AM CDT on March 27, 2017 (GMT -0500)
Waukegan Regional

Weather History for KUGN - March, 2014

Change the Weather History Date:

Wednesday, March 12, 2014

  Actual Average Record
Temperature  
Mean Temperature 22 °F -  
Max Temperature 33 °F 43 °F 61 °F (2007)
Min Temperature 11 °F 25 °F 10 °F (2009)
Degree Days  
Heating Degree Days 43 31  
Month to date heating degree days 513 394  
Since 1 July heating degree days 6382 5340  
Cooling Degree Days 0 0  
Month to date cooling degree days 0 0  
Year to date cooling degree days 0 0  
Moisture  
Dew Point 17 °F    
Average Humidity 69    
Maximum Humidity 92    
Minimum Humidity 45    
Precipitation  
Precipitation T in 0.07 in 0.89 in (2006)
Month to date precipitation 0.09 0.75  
Year to date precipitation 2.11 3.80  
Sea Level Pressure  
Sea Level Pressure 29.90 in    
Wind  
Wind Speed 12 mph (North)    
Max Wind Speed 28 mph    
Max Gust Speed 40 mph    
Visibility 8 miles    
Events Snow    
T = Trace of Precipitation, MM = Missing Value Source: NWS Daily Summary

Daily Weather History Graph

Daily Weather History Graph

Search for Another Location

Airport or City:

Trip Planner

Search our weather history database for the weather conditions in past years. The results will help you decide how hot, cold, wet, or windy it might be!

Date:

Astronomy

Mar. 12, 2014 Rise Set
Actual Time 7:08 AM CDT 6:54 PM CDT
Civil Twilight 6:40 AM CDT 7:22 PM CDT
Nautical Twilight 6:08 AM CDT 7:55 PM CDT
Astronomical Twilight 5:35 AM CDT 8:28 PM CDT
Moon 3:21 PM CDT (3/12) 4:43 AM CDT (3/12)
Length of Visible Light 12h 41m
Length of Day
11h 45m
Waxing Gibbous, 85% of the Moon is Illuminated
Mar 12
Waxing Gibbous
Mar 16
Full
Mar 23
Last Quarter
Mar 30
New
Apr 7
First Quarter

Hourly Weather History & Observations

Time (CDT) Temp. Windchill Dew Point Humidity Pressure Visibility Wind Dir Wind Speed Gust Speed Precip Events Conditions
12:39 AM 33.8 °F 24.3 °F 30.2 °F 87% 29.73 in 10.0 mi North 13.8 mph 20.7 mph N/A   Overcast
12:52 AM 33.1 °F 23.0 °F 30.0 °F 89% 29.75 in 10.0 mi NNE 15.0 mph 20.7 mph N/A   Overcast
1:43 AM 32.0 °F 22.1 °F 28.4 °F 87% 29.72 in 1.8 mi North 13.8 mph 21.9 mph 0.00 in Snow Light Snow
1:52 AM 30.9 °F 20.7 °F 28.9 °F 92% 29.75 in 1.2 mi North 13.8 mph 21.9 mph 0.00 in Snow Light Snow
2:52 AM 30.0 °F 18.7 °F 28.0 °F 92% 29.76 in 1.0 mi NNE 16.1 mph 26.5 mph 0.00 in Snow Light Snow
3:19 AM 30.2 °F 18.5 °F 26.6 °F 86% 29.72 in 2.5 mi North 17.3 mph 26.5 mph 0.00 in Snow Light Snow
3:30 AM 30.2 °F 19.8 °F 26.6 °F 86% 29.72 in 1.5 mi North 13.8 mph 27.6 mph 0.00 in Snow Light Snow
3:52 AM 28.9 °F 18.2 °F 23.0 °F 78% 29.77 in 2.0 mi North 13.8 mph 27.6 mph 0.00 in Snow Light Snow
4:01 AM 28.4 °F 15.1 °F 23.0 °F 80% 29.74 in 1.8 mi NNE 20.7 mph 29.9 mph 0.00 in Snow Light Snow
4:11 AM 28.4 °F 17.5 °F 23.0 °F 80% 29.75 in 2.0 mi NNE 13.8 mph 32.2 mph 0.00 in Snow Light Snow
4:52 AM 28.9 °F 16.9 °F 23.0 °F 78% 29.79 in 2.5 mi NNE 17.3 mph 27.6 mph 0.00 in Snow Light Snow
5:05 AM 28.4 °F 15.8 °F 23.0 °F 80% 29.76 in 4.0 mi NNE 18.4 mph 24.2 mph 0.00 in Snow Light Snow
5:52 AM 28.9 °F 19.2 °F 21.9 °F 75% 29.81 in 10.0 mi North 11.5 mph 26.5 mph 0.00 in   Overcast
6:43 AM 28.4 °F 15.4 °F 21.2 °F 74% 29.78 in 10.0 mi North 19.6 mph 32.2 mph N/A   Overcast
6:52 AM 28.0 °F 15.3 °F 21.9 °F 78% 29.82 in 10.0 mi North 18.4 mph 32.2 mph N/A   Mostly Cloudy
7:52 AM 27.0 °F 15.2 °F 21.0 °F 78% 29.86 in 10.0 mi North 15.0 mph 25.3 mph N/A   Overcast
8:52 AM 26.1 °F 12.3 °F 19.0 °F 75% 29.88 in 10.0 mi North 19.6 mph 33.4 mph N/A   Overcast
9:52 AM 24.1 °F 11.0 °F 18.0 °F 77% 29.91 in 10.0 mi North 16.1 mph 29.9 mph N/A   Overcast
10:05 AM 24.8 °F 10.7 °F 17.6 °F 74% 29.88 in 10.0 mi North 19.6 mph 27.6 mph N/A   Overcast
10:25 AM 24.8 °F 10.3 °F 15.8 °F 69% 29.88 in 10.0 mi North 20.7 mph 31.1 mph N/A   Overcast
10:43 AM 23.0 °F 10.1 °F 15.8 °F 74% 29.89 in 10.0 mi North 15.0 mph 28.8 mph N/A   Overcast
10:52 AM 23.0 °F 8.7 °F 15.1 °F 72% 29.94 in 10.0 mi North 18.4 mph 28.8 mph N/A   Overcast
11:52 AM 21.9 °F 6.9 °F 12.0 °F 66% 29.96 in 10.0 mi North 19.6 mph 31.1 mph N/A   Mostly Cloudy
12:52 PM 21.9 °F 9.2 °F 9.0 °F 58% 29.99 in 10.0 mi North 13.8 mph 21.9 mph N/A   Scattered Clouds
1:52 PM 21.9 °F 9.2 °F 8.1 °F 55% 30.00 in 10.0 mi North 13.8 mph 20.7 mph N/A   Clear
2:52 PM 23.0 °F 12.4 °F 7.0 °F 50% 30.01 in 10.0 mi NNW 10.4 mph - N/A   Clear
3:52 PM 24.1 °F 13.7 °F 7.0 °F 48% 30.04 in 10.0 mi North 10.4 mph 19.6 mph N/A   Clear
4:52 PM 23.0 °F 13.9 °F 5.0 °F 46% 30.06 in 10.0 mi North 8.1 mph 19.6 mph N/A   Clear
5:52 PM 21.0 °F 9.9 °F 6.1 °F 53% 30.08 in 10.0 mi NNE 10.4 mph - N/A   Clear
6:52 PM 19.9 °F 9.3 °F 5.0 °F 52% 30.12 in 10.0 mi NNE 9.2 mph - N/A   Clear
7:52 PM 19.0 °F 10.0 °F 3.9 °F 52% 30.14 in 10.0 mi North 6.9 mph - N/A   Clear
8:52 PM 18.0 °F 11.1 °F 3.9 °F 54% 30.15 in 10.0 mi North 4.6 mph - N/A   Clear
9:52 PM 16.0 °F 10.4 °F 3.9 °F 59% 30.16 in 10.0 mi WNW 3.5 mph - N/A   Clear
10:52 PM 12.9 °F 6.9 °F 5.0 °F 71% 30.16 in 10.0 mi WNW 3.5 mph - N/A   Clear
11:52 PM 12.9 °F 6.9 °F 6.1 °F 74% 30.16 in 10.0 mi WNW 3.5 mph - N/A   Clear